When you browse on this site, cookies collect data to enhance your experience and personalize the content and advertising you see.
Visit our Privacy Policy to learn more. By continuing to use the site, you agree to this use of cookies and data.
  • In Hungary
  • List of Countries
  • For 7 days
  • Water Temperature
  • Satellite Maps
  • Weather Map
  • News
  • Weather Widgets
  • user-avatar
    Login

    Hourly Weather Savino

    Today, 20 November, Tuesday

    Time Temperature Precipitation Wind Pressure Humidity
    00:00 -4°C° 0.1 mm 3 mps 759 mmHg 90%
    01:00 -4°C° 0 mm 3 mps 759 mmHg 91%
    02:00 -4°C° 0 mm 2 mps 759 mmHg 91%
    03:00 -4°C° 0 mm 2 mps 759 mmHg 94%
    04:00 -5°C° 0 mm 2 mps 759 mmHg 94%
    05:00 -5°C° 0 mm 2 mps 759 mmHg 94%
    06:00 -5°C° 0 mm 2 mps 758 mmHg 94%
    07:00 -5°C° 0 mm 2 mps 758 mmHg 93%
    08:00 -5°C° 0 mm 2 mps 758 mmHg 92%
    09:00 -5°C° 0 mm 2 mps 758 mmHg 90%
    10:00 -4°C° 0 mm 2 mps 758 mmHg 87%
    11:00 -4°C° 0 mm 2 mps 757 mmHg 85%
    12:00 -3°C° 0 mm 2 mps 757 mmHg 82%
    13:00 -4°C° 0 mm 2 mps 756 mmHg 82%
    14:00 -4°C° 0 mm 2 mps 756 mmHg 82%
    15:00 -5°C° 0 mm 3 mps 755 mmHg 82%
    16:00 -5°C° 0 mm 3 mps 755 mmHg 82%
    17:00 -5°C° 0 mm 3 mps 754 mmHg 83%
    18:00 -5°C° 0 mm 4 mps 754 mmHg 83%
    19:00 -5°C° 0 mm 4 mps 753 mmHg 83%
    20:00 -5°C° 0 mm 4 mps 752 mmHg 84%
    21:00 -5°C° 0 mm 4 mps 752 mmHg 84%
    22:00 -7°C° 0 mm 4 mps 751 mmHg 84%
    23:00 -7°C° 0 mm 4 mps 750 mmHg 83%

    Tomorrow, 21 November, Wednesday

    Time Temperature Precipitation Wind Pressure Humidity
    00:00 -7°C° 0 mm 4 mps 750 mmHg 83%
    01:00 -7°C° 0 mm 4 mps 749 mmHg 83%
    02:00 -6°C° 0 mm 5 mps 749 mmHg 82%
    03:00 -6°C° 0 mm 5 mps 748 mmHg 82%
    04:00 -6°C° 0.1 mm 5 mps 748 mmHg 83%
    05:00 -6°C° 0.1 mm 5 mps 747 mmHg 84%
    06:00 -5°C° 0.1 mm 5 mps 747 mmHg 85%
    07:00 -5°C° 0.1 mm 5 mps 746 mmHg 85%
    08:00 -4°C° 0.1 mm 5 mps 746 mmHg 85%
    09:00 -4°C° 0.1 mm 5 mps 746 mmHg 85%
    10:00 -4°C° 0.1 mm 6 mps 746 mmHg 78%
    11:00 -4°C° 0.1 mm 6 mps 746 mmHg 72%
    12:00 -4°C° 0.1 mm 6 mps 746 mmHg 66%
    13:00 -5°C° 0 mm 6 mps 747 mmHg 67%
    14:00 -5°C° 0 mm 5 mps 747 mmHg 67%
    15:00 -6°C° 0 mm 5 mps 747 mmHg 67%
    16:00 -7°C° 0 mm 5 mps 747 mmHg 70%
    17:00 -7°C° 0 mm 5 mps 748 mmHg 72%
    18:00 -7°C° 0 mm 5 mps 748 mmHg 75%
    19:00 -8°C° 0 mm 5 mps 748 mmHg 76%
    20:00 -8°C° 0 mm 5 mps 748 mmHg 77%
    21:00 -8°C° 0 mm 5 mps 748 mmHg 79%
    22:00 -8°C° 0 mm 5 mps 747 mmHg 80%
    23:00 -8°C° 0 mm 4 mps 747 mmHg 81%

    Day after tomorrow, 22 November, Thursday

    Time Temperature Precipitation Wind Pressure Humidity
    00:00 -8°C° 0 mm 4 mps 747 mmHg 83%
    01:00 -8°C° 0 mm 4 mps 747 mmHg 85%
    02:00 -8°C° 0 mm 4 mps 747 mmHg 87%
    03:00 -7°C° 0 mm 3 mps 746 mmHg 89%
    04:00 -7°C° 0.1 mm 3 mps 746 mmHg 89%
    05:00 -7°C° 0.1 mm 3 mps 746 mmHg 90%
    06:00 -7°C° 0.1 mm 3 mps 745 mmHg 90%
    07:00 -6°C° 0.1 mm 3 mps 745 mmHg 89%
    08:00 -7°C° 0.1 mm 4 mps 744 mmHg 88%
    09:00 -7°C° 0.1 mm 5 mps 744 mmHg 87%
    10:00 -7°C° 0.4 mm 5 mps 743 mmHg 87%
    11:00 -6°C° 0.4 mm 6 mps 742 mmHg 87%
    12:00 -7°C° 0.4 mm 7 mps 741 mmHg 87%
    13:00 -6°C° 0.4 mm 7 mps 740 mmHg 85%
    14:00 -5°C° 0.4 mm 6 mps 739 mmHg 84%
    15:00 -5°C° 0.4 mm 6 mps 739 mmHg 83%
    16:00 -5°C° 0.2 mm 6 mps 738 mmHg 84%
    17:00 -5°C° 0.2 mm 5 mps 738 mmHg 85%
    18:00 -4°C° 0.2 mm 4 mps 737 mmHg 86%
    19:00 -4°C° 0.6 mm 4 mps 736 mmHg 89%
    20:00 -4°C° 0.6 mm 3 mps 736 mmHg 92%
    21:00 -4°C° 0.6 mm 2 mps 735 mmHg 95%
    22:00 -5°C° 1.2 mm 4 mps 735 mmHg 94%
    23:00 -6°C° 1.2 mm 5 mps 735 mmHg 92%

    23 November, Friday

    Time Temperature Precipitation Wind Pressure Humidity
    00:00 -8°C° 1.2 mm 6 mps 735 mmHg 90%
    01:00 -9°C° 0.5 mm 7 mps 735 mmHg 87%
    02:00 -9°C° 0.5 mm 7 mps 736 mmHg 85%
    03:00 -11°C° 0.5 mm 7 mps 737 mmHg 82%
    04:00 -11°C° 0.2 mm 7 mps 738 mmHg 82%
    05:00 -11°C° 0.2 mm 7 mps 739 mmHg 82%
    06:00 -11°C° 0.2 mm 7 mps 740 mmHg 82%
    07:00 -11°C° 0 mm 7 mps 742 mmHg 81%
    08:00 -12°C° 0 mm 7 mps 744 mmHg 80%
    09:00 -11°C° 0 mm 6 mps 745 mmHg 79%
    10:00 -11°C° 0 mm 6 mps 746 mmHg 79%
    11:00 -11°C° 0 mm 6 mps 747 mmHg 79%
    12:00 -10°C° 0 mm 6 mps 748 mmHg 79%
    13:00 -11°C° 0 mm 6 mps 748 mmHg 80%
    14:00 -11°C° 0 mm 5 mps 749 mmHg 80%
    15:00 -11°C° 0 mm 5 mps 750 mmHg 81%
    16:00 -11°C° 0 mm 4 mps 750 mmHg 83%
    17:00 -12°C° 0 mm 4 mps 750 mmHg 84%
    18:00 -12°C° 0 mm 4 mps 751 mmHg 86%
    19:00 -12°C° 0 mm 4 mps 751 mmHg 87%
    20:00 -11°C° 0 mm 4 mps 751 mmHg 89%
    21:00 -11°C° 0 mm 4 mps 752 mmHg 90%
    22:00 -11°C° 0 mm 4 mps 752 mmHg 90%
    23:00 -11°C° 0 mm 4 mps 751 mmHg 90%

    24 November, Saturday

    Time Temperature Precipitation Wind Pressure Humidity
    00:00 -11°C° 0 mm 4 mps 751 mmHg 90%
    01:00 -10°C° 0 mm 4 mps 751 mmHg 89%
    02:00 -10°C° 0 mm 4 mps 751 mmHg 88%
    03:00 -10°C° 0 mm 4 mps 751 mmHg 86%
    04:00 -10°C° 0 mm 4 mps 751 mmHg 88%
    05:00 -10°C° 0 mm 4 mps 750 mmHg 89%
    06:00 -11°C° 0 mm 5 mps 750 mmHg 90%
    07:00 -10°C° 0 mm 5 mps 750 mmHg 89%
    08:00 -10°C° 0 mm 5 mps 749 mmHg 89%
    09:00 -8°C° 0 mm 5 mps 749 mmHg 88%
    10:00 -9°C° 0 mm 6 mps 749 mmHg 87%
    11:00 -9°C° 0 mm 6 mps 748 mmHg 86%
    12:00 -8°C° 0 mm 6 mps 748 mmHg 85%
    13:00 -8°C° 0.1 mm 6 mps 747 mmHg 85%
    14:00 -8°C° 0.1 mm 6 mps 747 mmHg 84%
    15:00 -7°C° 0.1 mm 5 mps 747 mmHg 84%
    16:00 -8°C° 0 mm 6 mps 746 mmHg 84%
    17:00 -6°C° 0 mm 6 mps 746 mmHg 84%
    18:00 -6°C° 0 mm 6 mps 746 mmHg 84%
    19:00 -6°C° 0 mm 6 mps 745 mmHg 84%
    20:00 -6°C° 0 mm 6 mps 745 mmHg 84%
    21:00 -6°C° 0 mm 6 mps 745 mmHg 84%
    22:00 -6°C° 0 mm 6 mps 744 mmHg 83%
    23:00 -6°C° 0 mm 6 mps 744 mmHg 83%

    25 November, Sunday

    Time Temperature Precipitation Wind Pressure Humidity
    00:00 -6°C° 0 mm 6 mps 744 mmHg 83%
    01:00 -6°C° 0 mm 6 mps 744 mmHg 83%
    02:00 -6°C° 0 mm 6 mps 745 mmHg 84%
    03:00 -6°C° 0 mm 6 mps 745 mmHg 84%
    04:00 -6°C° 0 mm 6 mps 745 mmHg 85%
    05:00 -6°C° 0 mm 5 mps 745 mmHg 86%
    06:00 -6°C° 0 mm 5 mps 746 mmHg 87%
    07:00 -7°C° 0 mm 5 mps 746 mmHg 88%
    08:00 -7°C° 0 mm 4 mps 747 mmHg 89%
    09:00 -7°C° 0 mm 4 mps 747 mmHg 90%
    10:00 -7°C° 0 mm 4 mps 748 mmHg 89%
    11:00 -5°C° 0 mm 4 mps 748 mmHg 89%
    12:00 -5°C° 0 mm 3 mps 748 mmHg 88%
    13:00 -5°C° 0 mm 3 mps 749 mmHg 88%
    14:00 -5°C° 0 mm 3 mps 749 mmHg 89%
    15:00 -6°C° 0 mm 3 mps 749 mmHg 90%
    16:00 -6°C° 0 mm 3 mps 749 mmHg 91%
    17:00 -6°C° 0 mm 2 mps 749 mmHg 93%
    18:00 -7°C° 0 mm 2 mps 750 mmHg 95%
    19:00 -7°C° 0 mm 2 mps 750 mmHg 96%
    20:00 -8°C° 0 mm 2 mps 750 mmHg 96%
    21:00 -8°C° 0 mm 2 mps 750 mmHg 97%
    22:00 -8°C° 0 mm 2 mps 750 mmHg 96%
    23:00 -7°C° 0 mm 2 mps 749 mmHg 96%
    Show more